,,Stat6,,Stat2,,Stat8,,Stat9,,Stat10,,Wind1,,Wind1,
time,status,PA1M_AVG,status,PR1M_SUM,status,RH1M_AVG,status,SR1M_AVG,status,TA1M_AVG,status,W1dAve1m,status,W1sAve1m,
2008-04-10, 00:00:00,VALID,916.59,VALID,0,VALID,100,VALID,-0.0509425,VALID,21.0769,VALID,22,VALID,0.361923,
2008-04-10, 00:01:00,VALID,916.583,VALID,0,VALID,100,VALID,-0.0509425,VALID,21.0831,VALID,23,VALID,0.286776,
2008-04-10, 00:02:00,VALID,916.588,VALID,0,VALID,100,VALID,-0.101885,VALID,21.0764,VALID,24,VALID,0.00218023,
2008-04-10, 00:03:00,VALID,916.578,VALID,0,VALID,100,VALID,-0.0679233,VALID,21.1123,VALID,27,VALID,0.40439,
2008-04-10, 00:04:00,VALID,916.579,VALID,0,VALID,100,VALID,-0.0509425,VALID,21.1123,VALID,27,VALID,0.381324,
2008-04-10, 00:05:00,VALID,916.572,VALID,0,VALID,100,VALID,-0.0169808,VALID,21.0793,VALID,31,VALID,0.194568,
2008-04-10, 00:06:00,VALID,916.553,VALID,0,VALID,100,VALID,-0.0509425,VALID,21.0891,VALID,38,VALID,0.592152,
2008-04-10, 00:07:00,VALID,916.543,VALID,0,VALID,100,VALID,-0.0679233,VALID,21.0861,VALID,35,VALID,1.00741,
2008-04-10, 00:08:00,VALID,916.532,VALID,0,VALID,100,VALID,-0.0339617,VALID,21.0769,VALID,39,VALID,0.905111,
2008-04-10, 00:09:00,VALID,916.522,VALID,0,VALID,100,VALID,-0.0679233,VALID,21.0571,VALID,30,VALID,1.36882,
2008-04-10, 00:10:00,VALID,916.528,VALID,0,VALID,100,VALID,-0.0509425,VALID,21.0079,VALID,39,VALID,1.00911,
2008-04-10, 00:11:00,VALID,916.529,VALID,0,VALID,100,VALID,-0.0339617,VALID,20.9987,VALID,31,VALID,0.414063,
2008-04-10, 00:12:00,VALID,916.526,VALID,0,VALID,100,VALID,-0.101885,VALID,20.9633,VALID,23,VALID,0.893229,
2008-04-10, 00:13:00,VALID,916.531,VALID,0,VALID,100,VALID,-0.0679233,VALID,20.8913,VALID,23,VALID,1.54913,
2008-04-10, 00:14:00,VALID,916.526,VALID,0,VALID,100,VALID,-0.0849042,VALID,20.8394,VALID,20,VALID,1.25725,
2008-04-10, 00:15:00,VALID,916.519,VALID,0,VALID,100,VALID,-0.0849042,VALID,20.8299,VALID,26,VALID,0.383721,
2008-04-10, 00:16:00,VALID,916.526,VALID,0,VALID,100,VALID,-0.0679233,VALID,20.8429,VALID,24,VALID,0.406836,
2008-04-10, 00:17:00,VALID,916.545,VALID,0,VALID,100,VALID,-0.0679233,VALID,20.8399,VALID,21,VALID,0.782158,
2008-04-10, 00:18:00,VALID,916.555,VALID,0,VALID,100,VALID,-0.0679233,VALID,20.7947,VALID,18,VALID,1.07849,
2008-04-10, 00:19:00,VALID,916.577,VALID,0,VALID,100,VALID,-0.101885,VALID,20.7653,VALID,31,VALID,1.58017,
2008-04-10, 00:20:00,VALID,916.583,VALID,0,VALID,100,VALID,-0.118866,VALID,20.7845,VALID,29,VALID,1.68247,
2008-04-10, 00:21:00,VALID,916.596,VALID,0,VALID,100,VALID,-0.101885,VALID,20.7945,VALID,33,VALID,1.56136,
2008-04-10, 00:22:00,VALID,916.599,VALID,0,VALID,100,VALID,-0.118866,VALID,20.8042,VALID,36,VALID,1.32031,
2008-04-10, 00:23:00,VALID,916.617,VALID,0,VALID,100,VALID,-0.0509425,VALID,20.794,VALID,26,VALID,1.44549,
2008-04-10, 00:24:00,VALID,916.613,VALID,0,VALID,100,VALID,-0.0849042,VALID,20.7515,VALID,24,VALID,1.375,
2008-04-10, 00:25:00,VALID,916.611,VALID,0,VALID,100,VALID,-0.0509425,VALID,20.7547,VALID,23,VALID,0.486281,
2008-04-10, 00:26:00,VALID,916.607,VALID,0,VALID,100,VALID,-0.0679233,VALID,20.7645,VALID,16,VALID,0,
2008-04-10, 00:27:00,VALID,916.582,VALID,0,VALID,100,VALID,-0.0679233,VALID,20.788,VALID,27,VALID,0.0368823,
2008-04-10, 00:28:00,VALID,916.559,VALID,0,VALID,100,VALID,-0.0679233,VALID,20.7783,VALID,8,VALID,0.490699,
2008-04-10, 00:29:00,VALID,916.539,VALID,0,VALID,100,VALID,-0.0849042,VALID,20.7485,VALID,22,VALID,0.823117,
2008-04-10, 00:30:00,VALID,916.518,VALID,0,VALID,100,VALID,-0.0509425,VALID,20.7683,VALID,21,VALID,0.261364,
2008-04-10, 00:31:00,VALID,916.479,VALID,0,VALID,100,VALID,-0.0679233,VALID,20.7488,VALID,31,VALID,0.904797,
2008-04-10, 00:32:00,VALID,916.451,VALID,0,VALID,100,VALID,-0.0849042,VALID,20.7228,VALID,24,VALID,1.10565,
2008-04-10, 00:33:00,VALID,916.451,VALID,0,VALID,100,VALID,-0.0679233,VALID,20.7036,VALID,19,VALID,0.672805,
2008-04-10, 00:34:00,VALID,916.426,VALID,0,VALID,100,VALID,-0.0509425,VALID,20.6904,VALID,29,VALID,0,
2008-04-10, 00:35:00,VALID,916.417,VALID,0,VALID,100,VALID,-0.0169808,VALID,20.7128,VALID,26,VALID,0.786458,
2008-04-10, 00:36:00,VALID,916.398,VALID,0,VALID,100,VALID,-0.0169808,VALID,20.6933,VALID,32,VALID,0.785792,
2008-04-10, 00:37:00,VALID,916.38,VALID,0,VALID,100,VALID,0,VALID,20.7061,VALID,45,VALID,0.706936,
2008-04-10, 00:38:00,VALID,916.362,VALID,0,VALID,100,VALID,-0.0169808,VALID,20.7126,VALID,37,VALID,0.153054,
2008-04-10, 00:39:00,VALID,916.336,VALID,0,VALID,100,VALID,-0.0169808,VALID,20.7193,VALID,36,VALID,0.000390625,
2008-04-10, 00:40:00,VALID,916.317,VALID,0,VALID,100,VALID,0,VALID,20.6933,VALID,29,VALID,1.22383,
2008-04-10, 00:41:00,VALID,916.314,VALID,0,VALID,100,VALID,-0.0339617,VALID,20.6871,VALID,33,VALID,0.407158,
2008-04-10, 00:42:00,VALID,916.301,VALID,0,VALID,100,VALID,0,VALID,20.6739,VALID,29,VALID,0.00208333,
2008-04-10, 00:43:00,VALID,916.303,VALID,0,VALID,100,VALID,0,VALID,20.6736,VALID,24,VALID,0,
2008-04-10, 00:44:00,VALID,916.302,VALID,0,VALID,100,VALID,-0.0169808,VALID,20.6771,VALID,19,VALID,0,
2008-04-10, 00:45:00,VALID,916.288,VALID,0,VALID,100,VALID,-0.0169808,VALID,20.6674,VALID,28,VALID,0,
2008-04-10, 00:46:00,VALID,916.271,VALID,0,VALID,100,VALID,-0.0509425,VALID,20.6774,VALID,33,VALID,0.636624,
2008-04-10, 00:47:00,VALID,916.256,VALID,0,VALID,100,VALID,-0.0339617,VALID,20.6741,VALID,33,VALID,0.872456,
2008-04-10, 00:48:00,VALID,916.235,VALID,0,VALID,100,VALID,-0.0339617,VALID,20.6674,VALID,33,VALID,1.11376,
2008-04-10, 00:49:00,VALID,916.214,VALID,0,VALID,100,VALID,-0.0339617,VALID,20.6479,VALID,36,VALID,0.94375,
2008-04-10, 00:50:00,VALID,916.203,VALID,0,VALID,100,VALID,-0.0849042,VALID,20.6479,VALID,42,VALID,0.0977515,
2008-04-10, 00:51:00,VALID,916.174,VALID,0,VALID,100,VALID,-0.0169808,VALID,20.6617,VALID,32,VALID,0.0539608,
2008-04-10, 00:52:00,VALID,916.168,VALID,0,VALID,100,VALID,-0.0339617,VALID,20.6482,VALID,26,VALID,0,
2008-04-10, 00:53:00,VALID,916.169,VALID,0,VALID,100,VALID,-0.0169808,VALID,20.6319,VALID,18,VALID,0.000952744,
2008-04-10, 00:54:00,VALID,916.172,VALID,0,VALID,100,VALID,-0.0339617,VALID,20.6092,VALID,15,VALID,0,
2008-04-10, 00:55:00,VALID,916.18,VALID,0,VALID,100,VALID,-0.0509425,VALID,20.5957,VALID,30,VALID,0,
2008-04-10, 00:56:00,VALID,916.189,VALID,0,VALID,100,VALID,-0.0339617,VALID,20.5703,VALID,135,VALID,0.0012429,
2008-04-10, 00:57:00,VALID,916.191,VALID,0,VALID,100,VALID,-0.0509425,VALID,20.5276,VALID,218,VALID,0.351918,
2008-04-10, 00:58:00,VALID,916.196,VALID,0,VALID,100,VALID,-0.0339617,VALID,20.4991,VALID,280,VALID,0.570685,
2008-04-10, 00:59:00,VALID,916.189,VALID,0,VALID,100,VALID,-0.0679233,VALID,20.4369,VALID,266,VALID,1.11012,
2008-04-10, 01:00:00,VALID,916.191,VALID,0,VALID,100,VALID,-0.0509425,VALID,20.398,VALID,227,VALID,0.162674,
2008-04-10, 01:01:00,VALID,916.177,VALID,0,VALID,100,VALID,-0.0339617,VALID,20.3947,VALID,226,VALID,0,
2008-04-10, 01:02:00,VALID,916.158,VALID,0,VALID,100,VALID,-0.0339617,VALID,20.4045,VALID,294,VALID,0.853468,
2008-04-10, 01:03:00,VALID,916.149,VALID,0,VALID,100,VALID,-0.0339617,VALID,20.411,VALID,24,VALID,1.66934,
2008-04-10, 01:04:00,VALID,916.134,VALID,0,VALID,100,VALID,0,VALID,20.3915,VALID,33,VALID,1.40191,
2008-04-10, 01:05:00,VALID,916.117,VALID,0,VALID,100,VALID,-0.0679233,VALID,20.3531,VALID,25,VALID,0.858445,
2008-04-10, 01:06:00,VALID,916.079,VALID,0,VALID,100,VALID,0,VALID,20.4115,VALID,25,VALID,0.52798,
2008-04-10, 01:07:00,VALID,916.029,VALID,0,VALID,100,VALID,-0.0509425,VALID,20.4464,VALID,18,VALID,0.738095,
2008-04-10, 01:08:00,VALID,915.989,VALID,0,VALID,100,VALID,-0.0679233,VALID,20.4175,VALID,351,VALID,0.579241,
2008-04-10, 01:09:00,VALID,915.948,VALID,0,VALID,100,VALID,-0.0339617,VALID,20.3718,VALID,11,VALID,0.340298,
2008-04-10, 01:10:00,VALID,915.912,VALID,0,VALID,100,VALID,-0.0339617,VALID,20.3426,VALID,20,VALID,0.39008,
2008-04-10, 01:11:00,VALID,915.91,VALID,0,VALID,100,VALID,-0.0679233,VALID,20.3136,VALID,18,VALID,0,
2008-04-10, 01:12:00,VALID,915.889,VALID,0,VALID,100,VALID,-0.0339617,VALID,20.2844,VALID,19,VALID,0,
2008-04-10, 01:13:00,VALID,915.892,VALID,0,VALID,100,VALID,-0.0169808,VALID,20.2941,VALID,24,VALID,0.32976,
2008-04-10, 01:14:00,VALID,915.896,VALID,0,VALID,100,VALID,-0.0509425,VALID,20.3233,VALID,21,VALID,0.648633,
2008-04-10, 01:15:00,VALID,915.897,VALID,0,VALID,100,VALID,-0.0679233,VALID,20.2947,VALID,19,VALID,0.746982,
2008-04-10, 01:16:00,VALID,915.894,VALID,0,VALID,100,VALID,-0.0169808,VALID,20.2714,VALID,29,VALID,1.16043,
2008-04-10, 01:17:00,VALID,915.892,VALID,0,VALID,100,VALID,-0.0679233,VALID,20.3041,VALID,11,VALID,1.15358,
2008-04-10, 01:18:00,VALID,915.871,VALID,0,VALID,100,VALID,-0.0679233,VALID,20.2849,VALID,7,VALID,1.09482,
2008-04-10, 01:19:00,VALID,915.847,VALID,0,VALID,100,VALID,-0.0679233,VALID,20.2717,VALID,23,VALID,0.919588,
2008-04-10, 01:20:00,VALID,915.811,VALID,0,VALID,100,VALID,-0.0169808,VALID,20.2719,VALID,16,VALID,0.984375,
2008-04-10, 01:21:00,VALID,915.77,VALID,0,VALID,100,VALID,-0.0849042,VALID,20.2719,VALID,18,VALID,0.809048,
2008-04-10, 01:22:00,VALID,915.74,VALID,0,VALID,100,VALID,-0.0849042,VALID,20.2784,VALID,14,VALID,0.597751,
2008-04-10, 01:23:00,VALID,915.713,VALID,0,VALID,100,VALID,-0.0169808,VALID,20.2914,VALID,16,VALID,0.413175,
2008-04-10, 01:24:00,VALID,915.704,VALID,0,VALID,100,VALID,-0.0509425,VALID,20.2812,VALID,5,VALID,0.598958,
2008-04-10, 01:25:00,VALID,915.69,VALID,0,VALID,100,VALID,-0.0509425,VALID,20.2617,VALID,350,VALID,0.18679,
2008-04-10, 01:26:00,VALID,915.686,VALID,0,VALID,100,VALID,-0.0169808,VALID,20.2517,VALID,350,VALID,0,
2008-04-10, 01:27:00,VALID,915.692,VALID,0,VALID,100,VALID,-0.0679233,VALID,20.2517,VALID,36,VALID,0,
2008-04-10, 01:28:00,VALID,915.671,VALID,0,VALID,100,VALID,-0.0339617,VALID,20.2577,VALID,44,VALID,0,
2008-04-10, 01:29:00,VALID,915.653,VALID,0,VALID,100,VALID,-0.0339617,VALID,20.2422,VALID,43,VALID,0,
2008-04-10, 01:30:00,VALID,915.61,VALID,0,VALID,100,VALID,-0.0169808,VALID,20.2712,VALID,40,VALID,0,
2008-04-10, 01:31:00,VALID,915.576,VALID,0,VALID,100,VALID,-0.0169808,VALID,20.2901,VALID,19,VALID,0.0448765,
2008-04-10, 01:32:00,VALID,915.543,VALID,0,VALID,100,VALID,0,VALID,20.2901,VALID,32,VALID,0.925872,
2008-04-10, 01:33:00,VALID,915.538,VALID,0,VALID,100,VALID,-0.0509425,VALID,20.2974,VALID,18,VALID,0.841211,
2008-04-10, 01:34:00,VALID,915.517,VALID,0,VALID,100,VALID,-0.0339617,VALID,20.3101,VALID,30,VALID,0.849466,
2008-04-10, 01:35:00,VALID,915.507,VALID,0,VALID,100,VALID,-0.0169808,VALID,20.3041,VALID,18,VALID,1.19422,
2008-04-10, 01:36:00,VALID,915.506,VALID,0,VALID,100,VALID,-0.0509425,VALID,20.2617,VALID,35,VALID,0.911328,
2008-04-10, 01:37:00,VALID,915.477,VALID,0,VALID,100,VALID,-0.0339617,VALID,20.2292,VALID,33,VALID,1.09993,
2008-04-10, 01:38:00,VALID,915.457,VALID,0,VALID,100,VALID,-0.0509425,VALID,20.1606,VALID,37,VALID,1.00561,
2008-04-10, 01:39:00,VALID,915.429,VALID,0,VALID,100,VALID,-0.0849042,VALID,20.1514,VALID,35,VALID,0.950218,
2008-04-10, 01:40:00,VALID,915.412,VALID,0,VALID,100,VALID,-0.0679233,VALID,20.1581,VALID,37,VALID,0.87571,
2008-04-10, 01:41:00,VALID,915.39,VALID,0,VALID,100,VALID,-0.0509425,VALID,20.1581,VALID,38,VALID,1.11433,
2008-04-10, 01:42:00,VALID,915.384,VALID,0,VALID,100,VALID,-0.0339617,VALID,20.1446,VALID,46,VALID,1.28516,
2008-04-10, 01:43:00,VALID,915.363,VALID,0,VALID,100,VALID,-0.0169808,VALID,20.1027,VALID,56,VALID,1.20796,
2008-04-10, 01:44:00,VALID,915.35,VALID,0,VALID,100,VALID,-0.0339617,VALID,20.0932,VALID,42,VALID,1.14727,
2008-04-10, 01:45:00,VALID,915.333,VALID,0,VALID,100,VALID,-0.0169808,VALID,20.073,VALID,43,VALID,1.03249,
2008-04-10, 01:46:00,VALID,915.323,VALID,0,VALID,100,VALID,-0.0509425,VALID,20.0835,VALID,46,VALID,1.50355,
2008-04-10, 01:47:00,VALID,915.318,VALID,0,VALID,100,VALID,-0.0169808,VALID,20.0924,VALID,25,VALID,1.2439,
2008-04-10, 01:48:00,VALID,915.289,VALID,0,VALID,100,VALID,0,VALID,20.0929,VALID,41,VALID,1.99609,
2008-04-10, 01:49:00,VALID,915.302,VALID,0,VALID,100,VALID,-0.0339617,VALID,20.0762,VALID,19,VALID,1.93299,
2008-04-10, 01:50:00,VALID,915.292,VALID,0,VALID,100,VALID,-0.0509425,VALID,20.0505,VALID,23,VALID,1.52671,
2008-04-10, 01:51:00,VALID,915.255,VALID,0,VALID,100,VALID,0,VALID,20.07,VALID,50,VALID,1.24716,
2008-04-10, 01:52:00,VALID,915.243,VALID,0,VALID,100,VALID,0,VALID,20.0502,VALID,31,VALID,1.16297,
2008-04-10, 01:53:00,VALID,915.235,VALID,0,VALID,100,VALID,-0.0679233,VALID,20.0245,VALID,38,VALID,1.63976,
2008-04-10, 01:54:00,VALID,915.208,VALID,0,VALID,100,VALID,-0.0169808,VALID,20.0375,VALID,36,VALID,1.41502,
2008-04-10, 01:55:00,VALID,915.207,VALID,0,VALID,100,VALID,-0.0339617,VALID,19.9913,VALID,37,VALID,1.36646,
2008-04-10, 01:56:00,VALID,915.205,VALID,0,VALID,100,VALID,-0.0339617,VALID,20.018,VALID,11,VALID,1.49379,
2008-04-10, 01:57:00,VALID,915.183,VALID,0,VALID,100,VALID,-0.0169808,VALID,20.0048,VALID,17,VALID,1.82231,
2008-04-10, 01:58:00,VALID,915.199,VALID,0,VALID,100,VALID,-0.0169808,VALID,20.0113,VALID,35,VALID,1.40302,
2008-04-10, 01:59:00,VALID,915.204,VALID,0,VALID,100,VALID,-0.0339617,VALID,19.9981,VALID,35,VALID,0.944141,
2008-04-10, 02:00:00,VALID,915.197,VALID,0,VALID,100,VALID,-0.0169808,VALID,20.0143,VALID,32,VALID,1.26786,
2008-04-10, 02:01:00,VALID,915.2,VALID,0,VALID,100,VALID,0,VALID,20.0175,VALID,21,VALID,0.962209,
2008-04-10, 02:02:00,VALID,915.192,VALID,0,VALID,100,VALID,-0.0509425,VALID,20.0151,VALID,14,VALID,1.44833,
2008-04-10, 02:03:00,VALID,915.189,VALID,0,VALID,100,VALID,-0.0169808,VALID,19.9856,VALID,13,VALID,0.803646,
2008-04-10, 02:04:00,VALID,915.179,VALID,0,VALID,100,VALID,-0.0169808,VALID,19.9953,VALID,344,VALID,0.711769,
2008-04-10, 02:05:00,VALID,915.169,VALID,0,VALID,100,VALID,-0.0169808,VALID,19.9691,VALID,350,VALID,0.854688,
2008-04-10, 02:06:00,VALID,915.166,VALID,0,VALID,100,VALID,-0.0509425,VALID,19.9761,VALID,8,VALID,0.916266,
2008-04-10, 02:07:00,VALID,915.157,VALID,0,VALID,100,VALID,-0.0169808,VALID,19.9891,VALID,11,VALID,0.255208,
2008-04-10, 02:08:00,VALID,915.136,VALID,0,VALID,100,VALID,-0.0849042,VALID,19.9951,VALID,11,VALID,0,
2008-04-10, 02:09:00,VALID,915.121,VALID,0,VALID,100,VALID,-0.0169808,VALID,20.0343,VALID,11,VALID,0,
2008-04-10, 02:10:00,VALID,915.081,VALID,0,VALID,100,VALID,-0.0339617,VALID,20.0505,VALID,11,VALID,0,
2008-04-10, 02:11:00,VALID,915.06,VALID,0,VALID,100,VALID,0,VALID,20.0375,VALID,11,VALID,0,
2008-04-10, 02:12:00,VALID,915.043,VALID,0,VALID,100,VALID,-0.0679233,VALID,20.0375,VALID,11,VALID,0,
2008-04-10, 02:13:00,VALID,915.034,VALID,0,VALID,100,VALID,-0.0339617,VALID,20.0732,VALID,11,VALID,0,
2008-04-10, 02:14:00,VALID,915.031,VALID,0,VALID,100,VALID,-0.0169808,VALID,20.0857,VALID,11,VALID,0,
2008-04-10, 02:15:00,VALID,915.015,VALID,0,VALID,100,VALID,-0.0339617,VALID,20.0927,VALID,11,VALID,0,
2008-04-10, 02:16:00,VALID,915.02,VALID,0,VALID,100,VALID,-0.0679233,VALID,20.08,VALID,11,VALID,0,
2008-04-10, 02:17:00,VALID,915.019,VALID,0,VALID,100,VALID,-0.0679233,VALID,20.0635,VALID,11,VALID,0,
2008-04-10, 02:18:00,VALID,915.041,VALID,0,VALID,100,VALID,-0.0849042,VALID,20.067,VALID,11,VALID,0,
2008-04-10, 02:19:00,VALID,915.059,VALID,0,VALID,100,VALID,-0.0169808,VALID,20.0637,VALID,11,VALID,0,
2008-04-10, 02:20:00,VALID,915.084,VALID,0,VALID,100,VALID,-0.0509425,VALID,20.0702,VALID,11,VALID,0,
2008-04-10, 02:21:00,VALID,915.093,VALID,0,VALID,100,VALID,-0.0169808,VALID,20.0867,VALID,11,VALID,0,
2008-04-10, 02:22:00,VALID,915.114,VALID,0,VALID,100,VALID,-0.0169808,VALID,20.0954,VALID,11,VALID,0,
2008-04-10, 02:23:00,VALID,915.118,VALID,0,VALID,100,VALID,-0.0169808,VALID,20.1119,VALID,11,VALID,0,
2008-04-10, 02:24:00,VALID,915.112,VALID,0,VALID,100,VALID,-0.0169808,VALID,20.1022,VALID,11,VALID,0,
2008-04-10, 02:25:00,VALID,915.12,VALID,0,VALID,100,VALID,-0.0169808,VALID,20.0924,VALID,11,VALID,0,
2008-04-10, 02:26:00,VALID,915.116,VALID,0,VALID,100,VALID,-0.0169808,VALID,20.0762,VALID,11,VALID,0,
2008-04-10, 02:27:00,VALID,915.144,VALID,0,VALID,100,VALID,-0.0339617,VALID,20.076,VALID,11,VALID,0,
2008-04-10, 02:28:00,VALID,915.153,VALID,0,VALID,100,VALID,-0.0339617,VALID,20.0757,VALID,11,VALID,0,
2008-04-10, 02:29:00,VALID,915.175,VALID,0,VALID,100,VALID,-0.0339617,VALID,20.0827,VALID,11,VALID,0,
2008-04-10, 02:30:00,VALID,915.175,VALID,0,VALID,100,VALID,0,VALID,20.0627,VALID,359,VALID,0,
2008-04-10, 02:31:00,VALID,915.174,VALID,0,VALID,100,VALID,-0.0169808,VALID,20.0497,VALID,308,VALID,0,
2008-04-10, 02:32:00,VALID,915.154,VALID,0,VALID,100,VALID,-0.0339617,VALID,20.0435,VALID,303,VALID,0,
2008-04-10, 02:33:00,VALID,915.147,VALID,0,VALID,100,VALID,-0.0339617,VALID,20.05,VALID,303,VALID,0,
2008-04-10, 02:34:00,VALID,915.107,VALID,0,VALID,100,VALID,-0.0169808,VALID,20.0273,VALID,303,VALID,0,
2008-04-10, 02:35:00,VALID,915.101,VALID,0,VALID,100,VALID,0,VALID,20.0016,VALID,303,VALID,0,
2008-04-10, 02:36:00,VALID,915.101,VALID,0,VALID,100,VALID,-0.0169808,VALID,20.0013,VALID,303,VALID,0,
2008-04-10, 02:37:00,VALID,915.112,VALID,0,VALID,100,VALID,-0.0339617,VALID,20.0502,VALID,338,VALID,0,
2008-04-10, 02:38:00,VALID,915.117,VALID,0,VALID,100,VALID,0,VALID,20.0432,VALID,343,VALID,0,
2008-04-10, 02:39:00,VALID,915.128,VALID,0,VALID,100,VALID,-0.0169808,VALID,20.0535,VALID,343,VALID,0,
2008-04-10, 02:40:00,VALID,915.146,VALID,0,VALID,100,VALID,-0.0339617,VALID,20.0405,VALID,343,VALID,0,
2008-04-10, 02:41:00,VALID,915.159,VALID,0,VALID,100,VALID,-0.0169808,VALID,20.037,VALID,299,VALID,0,
2008-04-10, 02:42:00,VALID,915.177,VALID,0,VALID,100,VALID,-0.0169808,VALID,20.0338,VALID,294,VALID,0,
2008-04-10, 02:43:00,VALID,915.184,VALID,0,VALID,100,VALID,0,VALID,20.0335,VALID,289,VALID,0,
2008-04-10, 02:44:00,VALID,915.193,VALID,0,VALID,100,VALID,0,VALID,20.0208,VALID,251,VALID,0.133721,
2008-04-10, 02:45:00,VALID,915.194,VALID,0,VALID,100,VALID,-0.0169808,VALID,19.9821,VALID,251,VALID,0,
2008-04-10, 02:46:00,VALID,915.206,VALID,0,VALID,100,VALID,-0.0169808,VALID,19.9694,VALID,251,VALID,0,
2008-04-10, 02:47:00,VALID,915.212,VALID,0,VALID,100,VALID,-0.0169808,VALID,19.9624,VALID,251,VALID,0,
2008-04-10, 02:48:00,VALID,915.201,VALID,0,VALID,100,VALID,-0.0169808,VALID,19.9883,VALID,251,VALID,0,
2008-04-10, 02:49:00,VALID,915.198,VALID,0,VALID,100,VALID,0,VALID,20.021,VALID,251,VALID,0,
2008-04-10, 02:50:00,VALID,915.191,VALID,0,VALID,100,VALID,0,VALID,20.04,VALID,251,VALID,0,
2008-04-10, 02:51:00,VALID,915.199,VALID,0,VALID,100,VALID,-0.0169808,VALID,20.0789,VALID,251,VALID,0,
2008-04-10, 02:52:00,VALID,915.199,VALID,0,VALID,100,VALID,-0.0169808,VALID,20.0824,VALID,251,VALID,0,
2008-04-10, 02:53:00,VALID,915.207,VALID,0,VALID,100,VALID,0,VALID,20.0725,VALID,267,VALID,0,
2008-04-10, 02:54:00,VALID,915.193,VALID,0,VALID,100,VALID,0,VALID,20.0625,VALID,346,VALID,0,
2008-04-10, 02:55:00,VALID,915.196,VALID,0,VALID,100,VALID,0,VALID,20.076,VALID,354,VALID,0.222284,
2008-04-10, 02:56:00,VALID,915.199,VALID,0,VALID,100,VALID,0,VALID,20.0627,VALID,6,VALID,0.247196,
2008-04-10, 02:57:00,VALID,915.199,VALID,0,VALID,100,VALID,-0.0169808,VALID,20.0373,VALID,10,VALID,0.811328,
2008-04-10, 02:58:00,VALID,915.195,VALID,0,VALID,100,VALID,0,VALID,20.0305,VALID,10,VALID,0.863735,
2008-04-10, 02:59:00,VALID,915.203,VALID,0,VALID,100,VALID,-0.0339617,VALID,20.0011,VALID,12,VALID,0.858696,
2008-04-10, 03:00:00,VALID,915.195,VALID,0,VALID,100,VALID,0,VALID,19.9913,VALID,12,VALID,0.841844,
2008-04-10, 03:01:00,VALID,915.193,VALID,0,VALID,100,VALID,-0.0169808,VALID,19.9754,VALID,16,VALID,0.498611,
2008-04-10, 03:02:00,VALID,915.192,VALID,0,VALID,100,VALID,-0.0169808,VALID,19.9783,VALID,16,VALID,0,
2008-04-10, 03:03:00,VALID,915.173,VALID,0,VALID,100,VALID,-0.0339617,VALID,19.9783,VALID,16,VALID,0.0660342,
2008-04-10, 03:04:00,VALID,915.179,VALID,0,VALID,100,VALID,0,VALID,19.9789,VALID,7,VALID,0.831055,
2008-04-10, 03:05:00,VALID,915.183,VALID,0,VALID,100,VALID,0,VALID,19.9491,VALID,16,VALID,0.918341,
2008-04-10, 03:06:00,VALID,915.197,VALID,0,VALID,100,VALID,0.0169808,VALID,19.9491,VALID,18,VALID,1.09896,
2008-04-10, 03:07:00,VALID,915.202,VALID,0,VALID,100,VALID,-0.0509425,VALID,19.9329,VALID,7,VALID,0.894622,
2008-04-10, 03:08:00,VALID,915.213,VALID,0,VALID,100,VALID,-0.0509425,VALID,19.9297,VALID,6,VALID,0.661577,
2008-04-10, 03:09:00,VALID,915.218,VALID,0,VALID,100,VALID,0,VALID,19.9234,VALID,3,VALID,0.627668,
2008-04-10, 03:10:00,VALID,915.225,VALID,0,VALID,100,VALID,0,VALID,19.9135,VALID,16,VALID,0.817773,
2008-04-10, 03:11:00,VALID,915.231,VALID,0,VALID,100,VALID,0,VALID,19.9102,VALID,14,VALID,0.813616,
2008-04-10, 03:12:00,VALID,915.23,VALID,0,VALID,100,VALID,-0.0169808,VALID,19.904,VALID,17,VALID,0.804315,
2008-04-10, 03:13:00,VALID,915.221,VALID,0,VALID,100,VALID,0,VALID,19.8907,VALID,26,VALID,1.05487,
2008-04-10, 03:14:00,VALID,915.222,VALID,0,VALID,100,VALID,0,VALID,19.891,VALID,12,VALID,0.805051,
2008-04-10, 03:15:00,VALID,915.22,VALID,0,VALID,100,VALID,0,VALID,19.9037,VALID,12,VALID,0.173692,
2008-04-10, 03:16:00,VALID,915.212,VALID,0,VALID,100,VALID,-0.0509425,VALID,19.9297,VALID,60,VALID,0.15191,
2008-04-10, 03:17:00,VALID,915.209,VALID,0,VALID,100,VALID,0.0169808,VALID,19.9332,VALID,48,VALID,0.0225291,
2008-04-10, 03:18:00,VALID,915.187,VALID,0,VALID,100,VALID,0,VALID,19.9462,VALID,37,VALID,0.349787,
2008-04-10, 03:19:00,VALID,915.162,VALID,0,VALID,100,VALID,0,VALID,19.9397,VALID,22,VALID,0.0184659,
2008-04-10, 03:20:00,VALID,915.13,VALID,0,VALID,100,VALID,0,VALID,19.9102,VALID,21,VALID,0,
2008-04-10, 03:21:00,VALID,915.096,VALID,0,VALID,100,VALID,0,VALID,19.9267,VALID,30,VALID,0,
2008-04-10, 03:22:00,VALID,915.062,VALID,0,VALID,100,VALID,0.0169808,VALID,19.9297,VALID,56,VALID,0,
2008-04-10, 03:23:00,VALID,915.027,VALID,0,VALID,100,VALID,0.0169808,VALID,19.9269,VALID,61,VALID,0.463542,
2008-04-10, 03:24:00,VALID,914.996,VALID,0,VALID,100,VALID,0.0169808,VALID,19.894,VALID,61,VALID,0.597942,
2008-04-10, 03:25:00,VALID,914.979,VALID,0,VALID,100,VALID,0,VALID,19.9005,VALID,61,VALID,0.632635,
2008-04-10, 03:26:00,VALID,914.973,VALID,0,VALID,100,VALID,0.0169808,VALID,19.8645,VALID,56,VALID,0.55957,
2008-04-10, 03:27:00,VALID,914.965,VALID,0,VALID,100,VALID,0.0169808,VALID,19.8643,VALID,47,VALID,0.538504,
2008-04-10, 03:28:00,VALID,914.966,VALID,0,VALID,100,VALID,0.0169808,VALID,19.8615,VALID,37,VALID,0.606055,
2008-04-10, 03:29:00,VALID,914.973,VALID,0,VALID,100,VALID,0,VALID,19.8648,VALID,36,VALID,0.437322,
2008-04-10, 03:30:00,VALID,914.965,VALID,0,VALID,100,VALID,0.0679233,VALID,19.8615,VALID,35,VALID,0.124414,
2008-04-10, 03:31:00,VALID,914.955,VALID,0,VALID,100,VALID,0.0339617,VALID,19.8451,VALID,35,VALID,0,
2008-04-10, 03:32:00,VALID,914.927,VALID,0,VALID,100,VALID,0,VALID,19.8558,VALID,35,VALID,0.00111607,
2008-04-10, 03:33:00,VALID,914.894,VALID,0,VALID,100,VALID,0,VALID,19.858,VALID,35,VALID,0,
2008-04-10, 03:34:00,VALID,914.866,VALID,0,VALID,100,VALID,0,VALID,19.8453,VALID,35,VALID,0,
2008-04-10, 03:35:00,VALID,914.851,VALID,0,VALID,100,VALID,-0.0509425,VALID,19.8303,VALID,35,VALID,0,
2008-04-10, 03:36:00,VALID,914.845,VALID,0,VALID,100,VALID,-0.101885,VALID,19.8141,VALID,35,VALID,0,
2008-04-10, 03:37:00,VALID,914.834,VALID,0,VALID,100,VALID,-0.101885,VALID,19.8211,VALID,33,VALID,0,
2008-04-10, 03:38:00,VALID,914.85,VALID,0,VALID,100,VALID,-0.118866,VALID,19.8273,VALID,33,VALID,0,
2008-04-10, 03:39:00,VALID,914.856,VALID,0,VALID,100,VALID,-0.101885,VALID,19.8336,VALID,33,VALID,0,
2008-04-10, 03:40:00,VALID,914.862,VALID,0,VALID,100,VALID,-0.0849042,VALID,19.8209,VALID,33,VALID,0,
2008-04-10, 03:41:00,VALID,914.883,VALID,0,VALID,100,VALID,-0.0509425,VALID,19.8139,VALID,33,VALID,0,
2008-04-10, 03:42:00,VALID,914.888,VALID,0,VALID,100,VALID,-0.101885,VALID,19.7914,VALID,33,VALID,0,
2008-04-10, 03:43:00,VALID,914.882,VALID,0,VALID,100,VALID,-0.0849042,VALID,19.7687,VALID,33,VALID,0,
2008-04-10, 03:44:00,VALID,914.876,VALID,0,VALID,100,VALID,-0.101885,VALID,19.7592,VALID,33,VALID,0,